Regional Weather Roundup
Issued by NWS Upton, NY

Current Version | Previous Version | Graphics & Text | Print | Product List | Glossary Off
Versions: 1 2 3 4 5 6 7 8 9 10 11 12 13 14 15 16 17 18 19 20 21 22 23 24 25 26 27

000
ASUS41 KOKX 271909
RWROKX

REGIONAL WEATHER ROUNDUP
NATIONAL WEATHER SERVICE NEW YORK NY
300 PM EDT SAT MAY 27 2017

NOTE: "FAIR" INDICATES FEW OR NO CLOUDS BELOW 12,000 FEET WITH NO
SIGNIFICANT WEATHER AND/OR OBSTRUCTIONS TO VISIBILITY.

NYZ071-072-176-178-NJZ106-104-272000-
NEW YORK CITY METRO AREA

CITY           SKY/WX    TMP DP  RH WIND       PRES   REMARKS
Central Park   CLOUDY    70  54  56 CALM      29.89S
Wall St Helipt CLOUDY    71  56  58 VRB3      29.88S
Bronx Bot Gard   N/A     68  54  60 NE2       29.89R
LaGuardia APRT CLOUDY    71  53  52 NW3       29.86S
Kennedy INTL   CLOUDY    69  59  70 S9        29.87F
Breezy Point     N/A     63 N/A N/A S7          N/A
Newark/Liberty CLOUDY    73  53  49 VRB7      29.86S
Teterboro      CLOUDY    72  54  53 N6        29.85F
$$

NYZ177-179-078>081-272000-
LONG ISLAND NEW YORK

CITY           SKY/WX    TMP DP  RH WIND       PRES   REMARKS
Jones Beach      N/A     63 N/A N/A S7          N/A
Matinecock PT  NOT AVBL
Farmingdale    CLOUDY    65  56  72 S8        29.88S
MacArthur/ISP  CLOUDY    66  57  72 S8        29.88S
Shirley        CLOUDY    62  56  80 SE8       29.90S
Mt Sinai Harb    N/A    N/A N/A N/A S8          N/A
Westhampton    PTSUNNY   63  51  65 MISG      29.92R
East Hampton     N/A     66  50  57 S10       29.89S
Montauk          N/A     65  47  52 VRB5      29.91S
$$

NYZ052-065-067-272000-
HUDSON VALLEY

CITY           SKY/WX    TMP DP  RH WIND       PRES   REMARKS
White Plains   CLOUDY    69  53  56 NW8       29.87S
Larchmont Harb   N/A     64 N/A N/A NE7         N/A
Croton O-T Hud   N/A     68 N/A N/A W3          N/A
Newburgh       PTSUNNY   68  57  68 CALM      29.88S
Montgomery     CLOUDY    71  55  56 SW9       29.86S
Poughkeepsie   CLOUDY    70  54  56 CALM      29.86S
Albany         CLOUDY    69  50  50 CALM      29.88F
$$

NJZ001-105-106-008-010-013-015-019>022-104-272000-
NEW JERSEY

CITY           SKY/WX    TMP DP  RH WIND       PRES   REMARKS
Newark/Liberty CLOUDY    73  53  49 VRB7      29.86S
Teterboro      CLOUDY    72  54  53 N6        29.85F
Caldwell       CLOUDY    73  53  49 W5        29.88S
Somerville     CLOUDY    73  56  54 CALM      29.86S
Linden         CLOUDY    71  54  54 NW5       29.87F
Perth Amboy      N/A     70 N/A N/A W10         N/A
Sussex         CLOUDY    68  56  65 N8        29.89S
Andover          N/A     69  56  62 CALM      29.88F
Trenton        CLOUDY    70  56  61 SW7       29.88S
Millville      LGT RAIN  68  60  75 W6        29.90S
Atlantic City  CLOUDY    73  54  51 NW10      29.89S
Wrightstown    CLOUDY    71  55  56 W6        29.86S
Toms River     CLOUDY    69  58  67 S8        29.89S
Belmar         CLOUDY    68  57  68 S8        29.89S
$$

PAZ047>061-062-071-272000-
EASTERN PENNSYLVANIA

CITY           SKY/WX    TMP DP  RH WIND       PRES   REMARKS
Philadelphia   CLOUDY    71  52  50 W10       29.90S
Allentown      CLOUDY    70  55  59 W8        29.89S
Scranton       CLOUDY    67  54  63 CALM      29.89F
$$

CTZ002-004>006-009-010-012-RIZ004-006-007-MAZ004-011-015-272000-
SOUTHERN NEW ENGLAND
 IN CT

CITY           SKY/WX    TMP DP  RH WIND       PRES   REMARKS
Bradley INTL   PTSUNNY   67  48  50 CALM      29.88S
Hartford       MOSUNNY   68  51  54 VRB5      29.88S
Danbury        CLOUDY    68  52  56 N6        29.88S
Wtrbury/Oxford PTSUNNY  N/A N/A N/A W7        29.89S
Bridgeport     CLOUDY    65  53  65 E10       29.88S
Meriden        CLOUDY    68  51  54 CALM      29.87S
New Haven      MOSUNNY   66  52  60 SE10      29.88F
Chester        MOCLDY    64  52  63 S8        29.89S
Groton         CLOUDY    63  52  67 S9        29.88S
Wilimantic     CLOUDY    70  50  49 VRB5      29.88S

 IN RI

CITY           SKY/WX    TMP DP  RH WIND       PRES   REMARKS
Providence     PTSUNNY   68  52  56 S7        29.87S
Block Island   MOSUNNY   64  49  57 W10       29.90S
Westerly       CLOUDY    66  50  56 S12       29.89R
 IN MA

CITY           SKY/WX    TMP DP  RH WIND       PRES   REMARKS
Boston         MOSUNNY   59  49  69 E14       29.88F
Worcester      PTSUNNY   65  44  46 CALM      29.88R
Westfield      PTSUNNY   70  50  49 CALM      29.87S
Provincetown   SUNNY     59  47  64 NE5       29.90R
Nantucket      CLOUDY    57  48  72 N9        29.90R
$$

ANZ330-335-338-340-345-350-353-355-272000-
COASTAL MARINE OBSERVATIONS


STATION/POSITION TIME  SKY/WX   TEMP    WIND        PRES    VSBY  WAVE
                                AIR SEA DIR/SP/G                  HT/PER
                 (UTC)          (F)     (DEG/KT/KT) (MB)    (MI)  (FT/S)
NY HARB ENTRANCE 1750            62 60  180/  6/  6 1011.9          2/ 7
20 S FIRE ISLAND 1850            61 59  170/  6/  6 1011.7          2/ 7
GREAT SOUTH BAY  NOT AVBL
23 SSW MONTAUK P 1750            58 56              1012.9          4/ 7
15 E BARNEGAT LI 1830               61                N/A           3/ 6
HUDSON CANYON    1750            59 59  270/  2/  2 1012.6          3/ 6
KINGS POINT      1842            69 58   CALM  /  1 1011.2
EXECUTION ROCKS  1845            67                   N/A
CENTRAL LI SOUND NOT AVBL
EASTERN LI SOUND NOT AVBL
ROBBINS REEF     1842            70     270/  6/  8 1011.7
$$


>>>>>>>>>>>>>>>>>>>>>>>>>>>> KEY <<<<<<<<<<<<<<<<<<<<<<<<<<<
>                                                          <
>     SKY/WX - Sky Condition/Present Weather               <
>     TMP    - Temperature in Fahrenheit                   <
>     DP     - Dew Point in Fahrenheit                     <
>     RH     - Relative Humidity in Percent                <
>     WIND   - Direction (from) and Speed in MPH           <
>     PRES   - Mean Sea Level Pressure (inches of Hg)      <
>     WCI    - Wind Chill Index                            <
>     VSB    - VISIBILITY IN MILES                         <
>     HX     - HEAT INDEX                                  <
>     TC     - TEMPERATURE IN CELSIUS                      <
>     VRB    - VARIABLE WIND DIRECTION                     <
>                                                          <
>>>>>>>>>>>>>>>>>>>>>>>>>>>> KEY <<<<<<<<<<<<<<<<<<<<<<<<<<<




USA.gov is the U.S. government's official web portal to all federal, state and local government web resources and services.